| time (UTC) | temp F | wind direction | speed knots | gust knots | rain 1hr in | rain 24hr in | rain mn in | humidity % | barometer mb |
| 20260509015055 | 72 | 77 | 0.0 | 1.7 | 0.00 | 0.06 | 0.06 | 85 | 1008.8 |
| 20260509014554 | 72 | 0 | 0.0 | 1.7 | 0.00 | 0.06 | 0.06 | 85 | 1008.8 |
| 20260509014054 | 73 | 94 | 0.0 | 1.7 | 0.00 | 0.06 | 0.06 | 85 | 1008.6 |
| 20260509013554 | 73 | 35 | 0.0 | 1.7 | 0.00 | 0.06 | 0.06 | 85 | 1008.6 |
| 20260509013109 | 73 | 0 | 0.0 | 0.9 | 0.00 | 0.06 | 0.06 | 85 | 1008.6 |
| 20260509012554 | 73 | 0 | 0.0 | 0.9 | 0.00 | 0.06 | 0.06 | 84 | 1008.7 |
| 20260509012054 | 73 | 0 | 0.0 | 0.9 | 0.00 | 0.06 | 0.06 | 84 | 1008.5 |
| 20260509011608 | 73 | 0 | 0.0 | 0.9 | 0.00 | 0.06 | 0.06 | 84 | 1008.6 |
| 20260509011055 | 73 | 0 | 0.0 | 0.9 | 0.00 | 0.06 | 0.06 | 83 | 1008.4 |
| 20260509010555 | 73 | 0 | 0.0 | 0.9 | 0.00 | 0.06 | 0.06 | 83 | 1008.1 |
| 20260509010053 | 74 | 0 | 0.0 | 1.7 | 0.00 | 0.06 | 0.06 | 83 | 1008.2 |
| 20260509005555 | 74 | 0 | 0.0 | 1.7 | 0.00 | 0.06 | 0.06 | 82 | 1008.1 |
| 20260509005054 | 74 | 0 | 0.0 | 1.7 | 0.00 | 0.06 | 0.06 | 82 | 1008.1 |
| 20260509004607 | 74 | 0 | 0.0 | 1.7 | 0.00 | 0.06 | 0.06 | 82 | 1008.0 |
| 20260509004055 | 74 | 0 | 0.0 | 1.7 | 0.00 | 0.06 | 0.06 | 82 | 1008.0 |
| 20260509003559 | 74 | 0 | 0.0 | 1.7 | 0.00 | 0.06 | 0.06 | 82 | 1008.0 |
| 20260509003123 | 74 | 0 | 0.0 | 1.7 | 0.00 | 0.06 | 0.06 | 81 | 1007.8 |
| 20260509002554 | 75 | 0 | 0.0 | 0.9 | 0.00 | 0.06 | 0.06 | 81 | 1008.0 |
| 20260509002055 | 75 | 0 | 0.0 | 1.7 | 0.00 | 0.06 | 0.06 | 81 | 1007.8 |
| 20260509001605 | 75 | 0 | 0.0 | 1.7 | 0.00 | 0.06 | 0.06 | 81 | 1008.0 |
| 20260509001056 | 75 | 138 | 0.0 | 0.9 | 0.00 | 0.06 | 0.06 | 81 | 1008.0 |
| 20260509000558 | 75 | 0 | 0.0 | 0.9 | 0.00 | 0.06 | 0.06 | 81 | 1008.1 |
| 20260509000111 | 75 | 0 | 0.0 | 0.9 | 0.00 | 0.06 | 0.06 | 81 | 1008.1 |
| 20260508235555 | 75 | 0 | 0.0 | 0.9 | 0.00 | 0.06 | 0.06 | 80 | 1008.2 |
| 20260508235058 | 75 | 0 | 0.0 | 1.7 | 0.00 | 0.06 | 0.06 | 80 | 1008.1 |
| 20260508234553 | 75 | 0 | 0.0 | 1.7 | 0.00 | 0.06 | 0.06 | 80 | 1008.1 |
| 20260508234058 | 75 | 39 | 0.0 | 1.7 | 0.00 | 0.06 | 0.06 | 79 | 1008.1 |
| 20260508233555 | 75 | 0 | 0.0 | 2.6 | 0.00 | 0.06 | 0.06 | 79 | 1008.2 |
| 20260508233054 | 75 | 187 | 0.0 | 2.6 | 0.00 | 0.06 | 0.06 | 78 | 1008.1 |
| 20260508232555 | 75 | 0 | 0.0 | 3.5 | 0.00 | 0.06 | 0.06 | 78 | 1007.9 |
| 20260508232054 | 76 | 220 | 0.9 | 3.5 | 0.00 | 0.06 | 0.06 | 78 | 1008.0 |
| 20260508231559 | 76 | 0 | 0.9 | 3.5 | 0.00 | 0.06 | 0.06 | 78 | 1008.1 |
| 20260508231055 | 76 | 90 | 0.9 | 3.5 | 0.00 | 0.06 | 0.06 | 78 | 1007.7 |
| 20260508230556 | 76 | 59 | 0.0 | 3.5 | 0.00 | 0.06 | 0.06 | 77 | 1007.9 |
| 20260508225554 | 76 | 148 | 0.0 | 3.5 | 0.00 | 0.06 | 0.06 | 78 | 1008.0 |
| 20260508225056 | 76 | 196 | 0.9 | 3.5 | 0.00 | 0.06 | 0.06 | 77 | 1007.8 |
| 20260508224606 | 76 | 167 | 0.0 | 3.5 | 0.00 | 0.06 | 0.06 | 77 | 1008.1 |
| 20260508224055 | 75 | 0 | 0.9 | 5.2 | 0.00 | 0.06 | 0.06 | 78 | 1008.0 |
| 20260508223555 | 75 | 58 | 0.9 | 5.2 | 0.00 | 0.06 | 0.06 | 79 | 1008.1 |
| 20260508223055 | 74 | 0 | 0.9 | 5.2 | 0.00 | 0.06 | 0.06 | 79 | 1008.1 |
| 20260508222554 | 74 | 55 | 0.0 | 4.3 | 0.00 | 0.06 | 0.06 | 79 | 1008.3 |
| 20260508222055 | 74 | 40 | 0.9 | 2.6 | 0.00 | 0.06 | 0.06 | 79 | 1008.4 |
| 20260508221554 | 74 | 0 | 0.9 | 2.6 | 0.00 | 0.06 | 0.06 | 79 | 1008.4 |
| 20260508221055 | 74 | 164 | 0.9 | 4.3 | 0.00 | 0.06 | 0.06 | 78 | 1008.6 |
| 20260508220554 | 74 | 161 | 0.9 | 4.3 | 0.00 | 0.06 | 0.06 | 77 | 1008.5 |
| 20260508220059 | 75 | 42 | 0.9 | 3.5 | 0.00 | 0.06 | 0.06 | 77 | 1008.7 |
| 20260508215554 | 75 | 0 | 0.9 | 3.5 | 0.00 | 0.06 | 0.06 | 77 | 1008.7 |
| 20260508215100 | 75 | 233 | 0.0 | 3.5 | 0.00 | 0.06 | 0.06 | 78 | 1008.7 |
| 20260508214554 | 75 | 60 | 0.9 | 2.6 | 0.00 | 0.06 | 0.06 | 79 | 1008.7 |
| 20260508214056 | 74 | 11 | 0.0 | 1.7 | 0.00 | 0.06 | 0.06 | 80 | 1008.9 |
| 20260508213555 | 73 | 61 | 0.0 | 4.3 | 0.00 | 0.06 | 0.06 | 79 | 1008.9 |
| 20260508213102 | 73 | 169 | 0.0 | 4.3 | 0.00 | 0.06 | 0.06 | 79 | 1009.0 |
| 20260508212555 | 74 | 73 | 0.0 | 3.5 | 0.00 | 0.06 | 0.06 | 78 | 1009.0 |
| 20260508212055 | 74 | 196 | 0.0 | 3.5 | 0.00 | 0.06 | 0.06 | 77 | 1009.0 |
| 20260508211558 | 74 | 184 | 0.9 | 3.5 | 0.00 | 0.06 | 0.06 | 78 | 1009.1 |
| 20260508211057 | 73 | 214 | 0.9 | 4.3 | 0.00 | 0.06 | 0.06 | 79 | 1009.3 |
| 20260508210555 | 73 | 170 | 0.9 | 4.3 | 0.00 | 0.06 | 0.06 | 79 | 1009.5 |
| 20260508210057 | 73 | 67 | 1.7 | 4.3 | 0.00 | 0.06 | 0.06 | 78 | 1009.5 |
| 20260508205554 | 73 | 73 | 0.0 | 4.3 | 0.00 | 0.06 | 0.06 | 80 | 1009.6 |
| 20260508205056 | 72 | 0 | 0.9 | 4.3 | 0.00 | 0.06 | 0.06 | 79 | 1009.8 |
| 20260508204600 | 71 | 47 | 0.9 | 3.5 | 0.00 | 0.06 | 0.06 | 79 | 1009.7 |
| 20260508204055 | 72 | 110 | 0.0 | 3.5 | 0.00 | 0.06 | 0.06 | 79 | 1009.7 |
| 20260508203557 | 72 | 0 | 0.0 | 3.5 | 0.00 | 0.06 | 0.06 | 81 | 1009.9 |
| 20260508203057 | 71 | 182 | 0.9 | 6.1 | 0.00 | 0.06 | 0.06 | 80 | 1010.0 |
| 20260508202556 | 70 | 96 | 0.9 | 6.1 | 0.00 | 0.06 | 0.06 | 81 | 1010.0 |
| 20260508202055 | 71 | 39 | 0.9 | 5.2 | 0.00 | 0.06 | 0.06 | 80 | 1010.0 |
| 20260508201610 | 70 | 64 | 0.9 | 5.2 | 0.00 | 0.06 | 0.06 | 84 | 1009.5 |
| 20260508201055 | 69 | 84 | 0.9 | 6.1 | 0.01 | 0.06 | 0.06 | 83 | 1009.7 |
| 20260508200555 | 68 | 190 | 1.7 | 6.1 | 0.06 | 0.06 | 0.06 | 83 | 1009.6 |
| 20260508200106 | 69 | 134 | 1.7 | 7.8 | 0.06 | 0.06 | 0.06 | 86 | 1009.5 |
| 20260508195555 | 68 | 164 | 0.9 | 7.8 | 0.06 | 0.06 | 0.06 | 88 | 1009.7 |
| 20260508195056 | 67 | 111 | 0.9 | 4.3 | 0.06 | 0.06 | 0.06 | 89 | 1009.9 |
| 20260508194600 | 66 | 0 | 0.0 | 1.7 | 0.06 | 0.06 | 0.06 | 88 | 1010.4 |
| 20260508194057 | 66 | 0 | 0.9 | 1.7 | 0.06 | 0.06 | 0.06 | 89 | 1010.6 |
| 20260508193555 | 66 | 0 | 0.0 | 0.9 | 0.06 | 0.06 | 0.06 | 89 | 1010.8 |
| 20260508193106 | 66 | 0 | 0.0 | 0.9 | 0.06 | 0.06 | 0.06 | 89 | 1011.0 |
| 20260508192555 | 66 | 0 | 0.0 | 1.7 | 0.06 | 0.06 | 0.06 | 88 | 1011.5 |
| 20260508192056 | 66 | 0 | 0.0 | 2.6 | 0.06 | 0.06 | 0.06 | 87 | 1011.6 |
| 20260508191555 | 67 | 0 | 0.0 | 4.3 | 0.06 | 0.06 | 0.06 | 85 | 1011.3 |
| 20260508191055 | 68 | 0 | 0.0 | 4.3 | 0.05 | 0.05 | 0.05 | 82 | 1011.6 |
| 20260508190556 | 70 | 76 | 0.9 | 4.3 | 0.00 | 0.00 | 0.00 | 76 | 1011.8 |
| 20260508190100 | 70 | 219 | 0.0 | 3.5 | 0.00 | 0.00 | 0.00 | 75 | 1011.8 |
| 20260508185555 | 71 | 330 | 0.9 | 3.5 | 0.00 | 0.00 | 0.00 | 74 | 1011.6 |
| 20260508185055 | 72 | 171 | 0.9 | 6.1 | 0.00 | 0.00 | 0.00 | 74 | 1011.4 |
| 20260508184609 | 72 | 233 | 1.7 | 6.1 | 0.00 | 0.00 | 0.00 | 75 | 1011.4 |
| 20260508184055 | 72 | 105 | 0.9 | 6.1 | 0.00 | 0.00 | 0.00 | 74 | 1011.4 |
| 20260508183554 | 72 | 49 | 0.9 | 3.5 | 0.00 | 0.00 | 0.00 | 73 | 1011.4 |
| 20260508183105 | 72 | 75 | 0.0 | 4.3 | 0.00 | 0.00 | 0.00 | 74 | 1011.5 |
| 20260508182553 | 72 | 81 | 0.9 | 4.3 | 0.00 | 0.00 | 0.00 | 73 | 1011.7 |
| 20260508182053 | 72 | 57 | 0.9 | 4.3 | 0.00 | 0.00 | 0.00 | 74 | 1012.0 |
| 20260508181559 | 71 | 85 | 0.9 | 3.5 | 0.00 | 0.00 | 0.00 | 74 | 1012.1 |
| 20260508181055 | 71 | 24 | 0.9 | 3.5 | 0.00 | 0.00 | 0.00 | 73 | 1012.1 |
| 20260508180554 | 71 | 55 | 0.9 | 3.5 | 0.00 | 0.00 | 0.00 | 73 | 1012.2 |
| 20260508180059 | 71 | 119 | 0.9 | 4.3 | 0.00 | 0.00 | 0.00 | 75 | 1012.2 |
| 20260508175555 | 70 | 189 | 0.9 | 4.3 | 0.00 | 0.00 | 0.00 | 74 | 1012.3 |
| 20260508175054 | 70 | 96 | 1.7 | 5.2 | 0.00 | 0.00 | 0.00 | 73 | 1012.8 |
| 20260508174605 | 71 | 51 | 0.9 | 5.2 | 0.00 | 0.00 | 0.00 | 72 | 1012.7 |
| 20260508174053 | 71 | 223 | 1.7 | 5.2 | 0.00 | 0.00 | 0.00 | 70 | 1012.8 |
| 20260508173555 | 72 | 49 | 1.7 | 5.2 | 0.00 | 0.00 | 0.00 | 69 | 1012.7 |
| 20260508173054 | 73 | 170 | 0.9 | 4.3 | 0.00 | 0.00 | 0.00 | 71 | 1012.6 |
| 20260508172555 | 73 | 207 | 0.9 | 3.5 | 0.00 | 0.00 | 0.00 | 70 | 1012.3 |
| 20260508172054 | 73 | 180 | 0.0 | 4.3 | 0.00 | 0.00 | 0.00 | 70 | 1012.3 |
| 20260508171558 | 74 | 134 | 0.9 | 4.3 | 0.00 | 0.00 | 0.00 | 67 | 1012.2 |
| 20260508171056 | 73 | 87 | 0.0 | 3.5 | 0.00 | 0.00 | 0.00 | 69 | 1012.2 |
| 20260508170556 | 72 | 0 | 0.9 | 4.3 | 0.00 | 0.00 | 0.00 | 70 | 1012.3 |
| 20260508170056 | 72 | 0 | 0.9 | 4.3 | 0.00 | 0.00 | 0.00 | 71 | 1012.2 |
| 20260508165553 | 72 | 0 | 0.0 | 1.7 | 0.00 | 0.00 | 0.00 | 76 | 1012.4 |
| 20260508165055 | 71 | 130 | 0.0 | 3.5 | 0.00 | 0.00 | 0.00 | 75 | 1012.7 |
| 20260508164558 | 70 | 180 | 0.0 | 3.5 | 0.00 | 0.00 | 0.00 | 74 | 1012.7 |
| 20260508164055 | 70 | 68 | 0.9 | 3.5 | 0.00 | 0.00 | 0.00 | 73 | 1013.2 |
| 20260508163554 | 70 | 0 | 0.9 | 3.5 | 0.00 | 0.00 | 0.00 | 74 | 1013.2 |
| 20260508163114 | 70 | 112 | 0.0 | 2.6 | 0.00 | 0.00 | 0.00 | 75 | 1013.2 |
| 20260508162554 | 69 | 243 | 0.9 | 2.6 | 0.00 | 0.00 | 0.00 | 73 | 1013.3 |
| 20260508162055 | 69 | 109 | 0.0 | 2.6 | 0.00 | 0.00 | 0.00 | 77 | 1013.3 |
| 20260508161556 | 68 | 130 | 0.0 | 2.6 | 0.00 | 0.00 | 0.00 | 75 | 1013.4 |
| 20260508161054 | 67 | 167 | 0.0 | 3.5 | 0.00 | 0.00 | 0.00 | 77 | 1013.5 |
| 20260508160554 | 67 | 26 | 0.0 | 3.5 | 0.00 | 0.00 | 0.00 | 76 | 1013.6 |
| 20260508160055 | 67 | 0 | 0.0 | 1.7 | 0.00 | 0.00 | 0.00 | 76 | 1013.5 |
| 20260508155552 | 67 | 103 | 0.0 | 1.7 | 0.00 | 0.00 | 0.00 | 76 | 1013.6 |
| 20260508155059 | 66 | 0 | 0.0 | 2.6 | 0.00 | 0.00 | 0.00 | 76 | 1013.6 |
| 20260508154558 | 66 | 0 | 0.0 | 2.6 | 0.00 | 0.00 | 0.00 | 77 | 1013.6 |
| 20260508154054 | 66 | 75 | 0.0 | 2.6 | 0.00 | 0.00 | 0.00 | 76 | 1013.8 |
| 20260508153554 | 66 | 0 | 0.0 | 4.3 | 0.00 | 0.00 | 0.00 | 76 | 1013.7 |
| 20260508153058 | 66 | 0 | 0.0 | 4.3 | 0.00 | 0.00 | 0.00 | 77 | 1013.9 |
| 20260508152555 | 65 | 117 | 0.9 | 4.3 | 0.00 | 0.00 | 0.00 | 78 | 1013.8 |
| 20260508152055 | 65 | 150 | 0.0 | 1.7 | 0.00 | 0.00 | 0.00 | 80 | 1014.0 |
| 20260508151554 | 65 | 0 | 0.0 | 1.7 | 0.00 | 0.00 | 0.00 | 80 | 1013.8 |
| 20260508151055 | 65 | 131 | 0.0 | 1.7 | 0.00 | 0.00 | 0.00 | 79 | 1014.0 |
| 20260508150600 | 64 | 151 | 0.0 | 1.7 | 0.00 | 0.00 | 0.00 | 79 | 1014.2 |
| 20260508150057 | 64 | 0 | 0.0 | 1.7 | 0.00 | 0.00 | 0.00 | 80 | 1014.3 |
| 20260508145555 | 64 | 182 | 0.0 | 1.7 | 0.00 | 0.00 | 0.00 | 80 | 1014.4 |
| 20260508145058 | 64 | 0 | 0.0 | 2.6 | 0.00 | 0.00 | 0.00 | 81 | 1014.3 |
| 20260508144555 | 64 | 0 | 0.0 | 2.6 | 0.00 | 0.00 | 0.00 | 80 | 1014.4 |
| 20260508144055 | 64 | 0 | 0.0 | 1.7 | 0.00 | 0.00 | 0.00 | 80 | 1014.5 |
| 20260508143555 | 64 | 0 | 0.0 | 1.7 | 0.00 | 0.00 | 0.00 | 80 | 1014.4 |
| 20260508143058 | 64 | 181 | 0.0 | 1.7 | 0.00 | 0.00 | 0.00 | 80 | 1014.4 |
| 20260508142555 | 64 | 0 | 0.0 | 1.7 | 0.00 | 0.00 | 0.00 | 80 | 1014.4 |
| 20260508142100 | 64 | 0 | 0.0 | 1.7 | 0.00 | 0.00 | 0.00 | 80 | 1014.3 |
| 20260508141603 | 64 | 0 | 0.0 | 2.6 | 0.00 | 0.00 | 0.00 | 80 | 1014.3 |
| 20260508141056 | 64 | 0 | 0.0 | 2.6 | 0.00 | 0.00 | 0.00 | 81 | 1014.5 |
| 20260508140555 | 64 | 63 | 0.0 | 2.6 | 0.00 | 0.00 | 0.00 | 81 | 1014.4 |
| 20260508140054 | 64 | 0 | 0.0 | 1.7 | 0.00 | 0.00 | 0.00 | 82 | 1014.4 |
| 20260508135556 | 63 | 0 | 0.0 | 0.9 | 0.00 | 0.00 | 0.00 | 84 | 1014.3 |
| 20260508135055 | 63 | 0 | 0.0 | 0.9 | 0.00 | 0.00 | 0.00 | 87 | 1014.1 |
| 20260508134600 | 62 | 0 | 0.0 | 0.9 | 0.00 | 0.00 | 0.00 | 87 | 1013.8 |
| 20260508134055 | 62 | 0 | 0.0 | 0.9 | 0.00 | 0.00 | 0.00 | 88 | 1013.8 |
| 20260508133557 | 61 | 0 | 0.0 | 1.7 | 0.00 | 0.00 | 0.00 | 88 | 1014.1 |
| 20260508133106 | 61 | 0 | 0.0 | 1.7 | 0.00 | 0.00 | 0.00 | 89 | 1014.1 |
| 20260508132555 | 61 | 0 | 0.0 | 0.0 | 0.00 | 0.00 | 0.00 | 90 | 1014.2 |
| 20260508132055 | 60 | 0 | 0.0 | 0.0 | 0.00 | 0.00 | 0.00 | 91 | 1014.3 |
| 20260508131558 | 60 | 0 | 0.0 | 0.0 | 0.00 | 0.00 | 0.00 | 91 | 1014.3 |
| 20260508131059 | 60 | 0 | 0.0 | 0.0 | 0.00 | 0.00 | 0.00 | 92 | 1014.3 |
| 20260508130555 | 59 | 0 | 0.0 | 0.0 | 0.00 | 0.00 | 0.00 | 91 | 1014.5 |
| 20260508130107 | 59 | 0 | 0.0 | 0.0 | 0.00 | 0.00 | 0.00 | 92 | 1014.4 |
| 20260508125556 | 59 | 0 | 0.0 | 0.0 | 0.00 | 0.00 | 0.00 | 92 | 1014.4 |
| 20260508125055 | 58 | 0 | 0.0 | 0.0 | 0.00 | 0.00 | 0.00 | 92 | 1014.5 |
| 20260508124557 | 58 | 0 | 0.0 | 0.0 | 0.00 | 0.00 | 0.00 | 92 | 1014.5 |
| 20260508124055 | 57 | 0 | 0.0 | 0.0 | 0.00 | 0.00 | 0.00 | 92 | 1014.4 |
| 20260508123557 | 57 | 0 | 0.0 | 0.0 | 0.00 | 0.00 | 0.00 | 92 | 1014.3 |
| 20260508123056 | 56 | 0 | 0.0 | 0.0 | 0.00 | 0.00 | 0.00 | 92 | 1014.3 |
| 20260508122555 | 56 | 0 | 0.0 | 0.0 | 0.00 | 0.00 | 0.00 | 91 | 1014.4 |
| 20260508122055 | 56 | 0 | 0.0 | 0.0 | 0.00 | 0.00 | 0.00 | 91 | 1014.5 |
| 20260508121555 | 56 | 0 | 0.0 | 0.0 | 0.00 | 0.00 | 0.00 | 91 | 1014.5 |
| 20260508121056 | 56 | 0 | 0.0 | 0.9 | 0.00 | 0.00 | 0.00 | 91 | 1014.5 |
| 20260508120555 | 56 | 0 | 0.0 | 0.9 | 0.00 | 0.00 | 0.00 | 91 | 1014.4 |
| 20260508120056 | 56 | 0 | 0.0 | 0.0 | 0.00 | 0.00 | 0.00 | 91 | 1014.3 |
| 20260508115556 | 56 | 0 | 0.0 | 0.0 | 0.00 | 0.00 | 0.00 | 91 | 1014.4 |
| 20260508115055 | 56 | 0 | 0.0 | 0.0 | 0.00 | 0.00 | 0.00 | 91 | 1014.5 |
| 20260508114556 | 56 | 0 | 0.0 | 0.0 | 0.00 | 0.00 | 0.00 | 91 | 1014.3 |
| 20260508114055 | 56 | 0 | 0.0 | 0.0 | 0.00 | 0.00 | 0.00 | 91 | 1014.4 |
| 20260508113556 | 56 | 0 | 0.0 | 0.0 | 0.00 | 0.00 | 0.00 | 91 | 1014.6 |
| 20260508113107 | 56 | 0 | 0.0 | 0.0 | 0.00 | 0.00 | 0.00 | 91 | 1014.8 |
| 20260508112555 | 56 | 0 | 0.0 | 0.0 | 0.00 | 0.00 | 0.00 | 91 | 1014.6 |
| 20260508112055 | 55 | 0 | 0.0 | 0.0 | 0.00 | 0.00 | 0.00 | 91 | 1014.5 |
| 20260508111553 | 55 | 0 | 0.0 | 0.0 | 0.00 | 0.00 | 0.00 | 91 | 1014.7 |
| 20260508111055 | 55 | 0 | 0.0 | 0.0 | 0.00 | 0.00 | 0.00 | 91 | 1014.7 |
| 20260508110555 | 55 | 0 | 0.0 | 0.0 | 0.00 | 0.00 | 0.00 | 91 | 1014.7 |
| 20260508110118 | 55 | 0 | 0.0 | 0.0 | 0.00 | 0.00 | 0.00 | 91 | 1014.6 |
| 20260508105555 | 55 | 0 | 0.0 | 0.9 | 0.00 | 0.00 | 0.00 | 91 | 1014.3 |
| 20260508105055 | 55 | 0 | 0.0 | 0.9 | 0.00 | 0.00 | 0.00 | 91 | 1014.6 |
| 20260508104603 | 55 | 199 | 0.0 | 0.9 | 0.00 | 0.00 | 0.00 | 91 | 1014.6 |
| 20260508104056 | 55 | 0 | 0.0 | 0.9 | 0.00 | 0.00 | 0.00 | 91 | 1014.5 |
| 20260508103557 | 55 | 0 | 0.0 | 0.0 | 0.00 | 0.00 | 0.00 | 91 | 1014.4 |
| 20260508103057 | 56 | 0 | 0.0 | 0.0 | 0.00 | 0.00 | 0.00 | 91 | 1014.7 |
| 20260508102555 | 56 | 0 | 0.0 | 0.0 | 0.00 | 0.00 | 0.00 | 91 | 1014.8 |
| 20260508102056 | 56 | 0 | 0.0 | 0.0 | 0.00 | 0.00 | 0.00 | 91 | 1014.6 |
| 20260508101557 | 56 | 0 | 0.0 | 0.0 | 0.00 | 0.00 | 0.00 | 91 | 1014.6 |
| 20260508101057 | 56 | 0 | 0.0 | 0.0 | 0.00 | 0.00 | 0.00 | 91 | 1014.9 |
| 20260508100556 | 56 | 0 | 0.0 | 0.0 | 0.00 | 0.00 | 0.00 | 91 | 1014.8 |
| 20260508100055 | 56 | 0 | 0.0 | 0.0 | 0.00 | 0.00 | 0.00 | 91 | 1014.9 |
| 20260508095600 | 56 | 0 | 0.0 | 0.0 | 0.00 | 0.00 | 0.00 | 91 | 1014.8 |
| 20260508095056 | 56 | 0 | 0.0 | 0.0 | 0.00 | 0.00 | 0.00 | 91 | 1014.5 |
| 20260508094558 | 56 | 0 | 0.0 | 0.0 | 0.00 | 0.00 | 0.00 | 91 | 1014.5 |
| 20260508094055 | 56 | 0 | 0.0 | 0.0 | 0.00 | 0.00 | 0.00 | 91 | 1014.7 |
| 20260508093555 | 56 | 0 | 0.0 | 0.0 | 0.00 | 0.00 | 0.00 | 91 | 1014.6 |
| 20260508093102 | 56 | 0 | 0.0 | 0.0 | 0.00 | 0.00 | 0.00 | 91 | 1014.3 |
| 20260508092559 | 56 | 0 | 0.0 | 0.0 | 0.00 | 0.00 | 0.00 | 91 | 1014.4 |
| 20260508092054 | 56 | 0 | 0.0 | 0.0 | 0.00 | 0.00 | 0.00 | 91 | 1014.3 |
| 20260508091556 | 56 | 0 | 0.0 | 0.0 | 0.00 | 0.00 | 0.00 | 91 | 1014.0 |
| 20260508091056 | 56 | 0 | 0.0 | 0.0 | 0.00 | 0.00 | 0.00 | 90 | 1014.0 |
| 20260508090556 | 57 | 0 | 0.0 | 0.0 | 0.00 | 0.00 | 0.00 | 90 | 1013.9 |
| 20260508090109 | 57 | 0 | 0.0 | 0.0 | 0.00 | 0.00 | 0.00 | 91 | 1014.0 |
| 20260508085555 | 57 | 0 | 0.0 | 0.0 | 0.00 | 0.00 | 0.00 | 90 | 1013.9 |
| 20260508085055 | 57 | 0 | 0.0 | 0.0 | 0.00 | 0.00 | 0.00 | 90 | 1014.1 |
| 20260508084555 | 58 | 0 | 0.0 | 0.0 | 0.00 | 0.00 | 0.00 | 91 | 1013.9 |
| 20260508084059 | 58 | 0 | 0.0 | 1.7 | 0.00 | 0.00 | 0.00 | 91 | 1014.3 |
| 20260508083555 | 58 | 0 | 0.0 | 1.7 | 0.00 | 0.00 | 0.00 | 91 | 1013.9 |
| 20260508083058 | 58 | 0 | 0.0 | 2.6 | 0.00 | 0.00 | 0.00 | 91 | 1014.0 |
| 20260508082555 | 58 | 0 | 0.0 | 2.6 | 0.00 | 0.00 | 0.00 | 91 | 1014.0 |
| 20260508082055 | 58 | 210 | 0.0 | 0.9 | 0.00 | 0.00 | 0.00 | 91 | 1013.9 |
| 20260508081605 | 58 | 0 | 0.0 | 0.0 | 0.00 | 0.00 | 0.00 | 90 | 1014.4 |
| 20260508081054 | 58 | 0 | 0.0 | 0.0 | 0.00 | 0.00 | 0.00 | 90 | 1014.6 |
| 20260508080556 | 58 | 0 | 0.0 | 0.0 | 0.00 | 0.00 | 0.00 | 90 | 1014.7 |
| 20260508080054 | 58 | 0 | 0.0 | 0.0 | 0.00 | 0.00 | 0.00 | 90 | 1014.6 |
| 20260508075556 | 58 | 0 | 0.0 | 0.0 | 0.00 | 0.00 | 0.00 | 90 | 1014.5 |
| 20260508075054 | 58 | 0 | 0.0 | 0.0 | 0.00 | 0.00 | 0.00 | 90 | 1014.8 |
| 20260508074555 | 58 | 0 | 0.0 | 0.0 | 0.00 | 0.00 | 0.00 | 90 | 1014.8 |
| 20260508074057 | 58 | 0 | 0.0 | 0.0 | 0.00 | 0.00 | 0.00 | 90 | 1014.9 |
| 20260508073557 | 58 | 0 | 0.0 | 0.0 | 0.00 | 0.00 | 0.00 | 90 | 1014.9 |
| 20260508073058 | 58 | 0 | 0.0 | 0.0 | 0.00 | 0.00 | 0.00 | 90 | 1015.2 |
| 20260508072556 | 58 | 0 | 0.0 | 0.0 | 0.00 | 0.00 | 0.00 | 90 | 1015.3 |
| 20260508072057 | 58 | 0 | 0.0 | 0.0 | 0.00 | 0.00 | 0.00 | 90 | 1015.4 |
| 20260508071554 | 58 | 0 | 0.0 | 0.0 | 0.00 | 0.00 | 0.00 | 90 | 1015.2 |
| 20260508071057 | 57 | 0 | 0.0 | 0.0 | 0.00 | 0.00 | 0.00 | 90 | 1015.3 |
| 20260508070555 | 57 | 0 | 0.0 | 0.0 | 0.00 | 0.00 | 0.00 | 90 | 1015.2 |
| 20260508070056 | 57 | 0 | 0.0 | 0.0 | 0.00 | 0.00 | 0.00 | 90 | 1015.4 |
| 20260508065558 | 57 | 0 | 0.0 | 0.0 | 0.00 | 0.00 | 0.00 | 90 | 1015.4 |
| 20260508065055 | 56 | 0 | 0.0 | 0.0 | 0.00 | 0.00 | 0.00 | 90 | 1015.3 |
| 20260508064556 | 56 | 0 | 0.0 | 0.0 | 0.00 | 0.00 | 0.00 | 89 | 1015.3 |
| 20260508064055 | 56 | 0 | 0.0 | 0.0 | 0.00 | 0.00 | 0.00 | 89 | 1015.3 |
| 20260508063554 | 57 | 0 | 0.0 | 0.0 | 0.00 | 0.00 | 0.00 | 89 | 1015.3 |
| 20260508063055 | 57 | 0 | 0.0 | 0.0 | 0.00 | 0.00 | 0.00 | 89 | 1015.1 |
| 20260508062555 | 57 | 0 | 0.0 | 0.0 | 0.00 | 0.00 | 0.00 | 89 | 1015.2 |
| 20260508062054 | 57 | 0 | 0.0 | 0.0 | 0.00 | 0.00 | 0.00 | 89 | 1015.5 |
| 20260508061609 | 57 | 0 | 0.0 | 0.0 | 0.00 | 0.00 | 0.00 | 89 | 1015.5 |
| 20260508061056 | 57 | 0 | 0.0 | 0.0 | 0.00 | 0.00 | 0.00 | 89 | 1015.4 |
| 20260508060556 | 58 | 0 | 0.0 | 0.0 | 0.00 | 0.00 | 0.00 | 89 | 1015.4 |
| 20260508055555 | 58 | 0 | 0.0 | 0.0 | 0.00 | 0.00 | 0.00 | 89 | 1015.4 |
| 20260508055055 | 58 | 0 | 0.0 | 0.0 | 0.00 | 0.00 | 0.00 | 89 | 1015.4 |
| 20260508054640 | 58 | 0 | 0.0 | 0.0 | 0.00 | 0.00 | 0.00 | 88 | 1015.4 |
| 20260508054055 | 58 | 0 | 0.0 | 0.0 | 0.00 | 0.00 | 0.00 | 88 | 1015.4 |
| 20260508053555 | 58 | 0 | 0.0 | 0.0 | 0.00 | 0.00 | 0.00 | 88 | 1015.5 |
| 20260508053103 | 58 | 0 | 0.0 | 0.0 | 0.00 | 0.00 | 0.00 | 88 | 1015.5 |
| 20260508052555 | 57 | 0 | 0.0 | 0.0 | 0.00 | 0.00 | 0.00 | 88 | 1015.5 |
| 20260508052054 | 58 | 0 | 0.0 | 0.0 | 0.00 | 0.00 | 0.00 | 88 | 1015.5 |
| 20260508051609 | 58 | 0 | 0.0 | 0.0 | 0.00 | 0.00 | 0.00 | 87 | 1015.5 |
| 20260508051056 | 58 | 0 | 0.0 | 0.0 | 0.00 | 0.00 | 0.00 | 87 | 1015.7 |
| 20260508050556 | 58 | 0 | 0.0 | 0.0 | 0.00 | 0.00 | 0.00 | 87 | 1015.6 |
| 20260508050057 | 58 | 0 | 0.0 | 0.0 | 0.00 | 0.00 | 0.00 | 86 | 1015.8 |
| 20260508045556 | 59 | 0 | 0.0 | 0.0 | 0.00 | 0.00 | 0.00 | 86 | 1015.8 |
| 20260508045054 | 59 | 0 | 0.0 | 0.0 | 0.00 | 0.00 | 0.00 | 87 | 1015.9 |
| 20260508044606 | 59 | 0 | 0.0 | 0.0 | 0.00 | 0.00 | 0.00 | 87 | 1015.8 |
| 20260508044056 | 59 | 0 | 0.0 | 0.0 | 0.00 | 0.00 | 0.00 | 87 | 1015.8 |
| 20260508043555 | 59 | 0 | 0.0 | 0.0 | 0.00 | 0.00 | 0.00 | 86 | 1015.8 |
| 20260508043103 | 59 | 0 | 0.0 | 0.0 | 0.00 | 0.00 | 0.00 | 86 | 1016.0 |
| 20260508042555 | 59 | 0 | 0.0 | 0.0 | 0.00 | 0.00 | 0.00 | 86 | 1015.7 |
| 20260508042057 | 59 | 0 | 0.0 | 0.0 | 0.00 | 0.00 | 0.00 | 86 | 1015.8 |
| 20260508041559 | 59 | 0 | 0.0 | 0.0 | 0.00 | 0.00 | 0.00 | 85 | 1015.9 |
| 20260508041055 | 59 | 0 | 0.0 | 0.0 | 0.00 | 0.00 | 0.00 | 85 | 1015.8 |
| 20260508040555 | 59 | 0 | 0.0 | 0.0 | 0.00 | 0.00 | 0.00 | 85 | 1015.6 |
| 20260508040101 | 60 | 0 | 0.0 | 0.0 | 0.00 | 0.00 | 0.00 | 85 | 1015.9 |
| 20260508035555 | 60 | 0 | 0.0 | 0.0 | 0.00 | 0.00 | 0.00 | 85 | 1016.0 |
| 20260508035055 | 60 | 0 | 0.0 | 0.0 | 0.00 | 0.00 | 0.00 | 85 | 1015.8 |
| 20260508034606 | 60 | 0 | 0.0 | 0.0 | 0.00 | 0.00 | 0.00 | 84 | 1015.7 |
| 20260508034052 | 60 | 0 | 0.0 | 0.0 | 0.00 | 0.00 | 0.00 | 84 | 1015.8 |
| 20260508033552 | 60 | 0 | 0.0 | 0.0 | 0.00 | 0.00 | 0.00 | 84 | 1015.6 |
| 20260508033059 | 60 | 0 | 0.0 | 0.0 | 0.00 | 0.00 | 0.00 | 84 | 1015.6 |
| 20260508032558 | 60 | 0 | 0.0 | 0.0 | 0.00 | 0.00 | 0.00 | 84 | 1015.6 |
| 20260508032056 | 60 | 0 | 0.0 | 0.0 | 0.00 | 0.00 | 0.00 | 84 | 1015.3 |
| 20260508031610 | 60 | 0 | 0.0 | 0.0 | 0.00 | 0.00 | 0.00 | 84 | 1015.4 |
| 20260508031055 | 60 | 0 | 0.0 | 0.0 | 0.00 | 0.00 | 0.00 | 83 | 1015.3 |
| 20260508030555 | 60 | 0 | 0.0 | 0.0 | 0.00 | 0.00 | 0.00 | 83 | 1015.3 |
| 20260508030115 | 60 | 0 | 0.0 | 0.0 | 0.00 | 0.00 | 0.00 | 83 | 1015.3 |
| 20260508025555 | 60 | 0 | 0.0 | 0.0 | 0.00 | 0.00 | 0.00 | 83 | 1015.1 |
| 20260508025055 | 60 | 0 | 0.0 | 0.0 | 0.00 | 0.00 | 0.00 | 82 | 1014.9 |
| 20260508024607 | 61 | 0 | 0.0 | 0.0 | 0.00 | 0.00 | 0.00 | 82 | 1014.8 |
| 20260508024055 | 61 | 0 | 0.0 | 0.0 | 0.00 | 0.00 | 0.00 | 82 | 1014.8 |
| 20260508023558 | 61 | 0 | 0.0 | 0.0 | 0.00 | 0.00 | 0.00 | 82 | 1014.7 |
| 20260508023058 | 61 | 0 | 0.0 | 0.0 | 0.00 | 0.00 | 0.00 | 82 | 1014.9 |
| 20260508022554 | 61 | 0 | 0.0 | 0.0 | 0.00 | 0.00 | 0.00 | 82 | 1014.7 |
| 20260508022055 | 61 | 0 | 0.0 | 0.0 | 0.00 | 0.00 | 0.00 | 82 | 1014.8 |
| 20260508021618 | 62 | 0 | 0.0 | 0.0 | 0.00 | 0.00 | 0.00 | 81 | 1014.7 |
| 20260508021056 | 62 | 0 | 0.0 | 0.0 | 0.00 | 0.00 | 0.00 | 81 | 1014.6 |
| 20260508020554 | 61 | 0 | 0.0 | 0.0 | 0.00 | 0.00 | 0.00 | 81 | 1014.6 |
| 20260508020054 | 61 | 0 | 0.0 | 0.0 | 0.00 | 0.00 | 0.00 | 81 | 1014.7 |
| 20260508015555 | 61 | 0 | 0.0 | 0.0 | 0.00 | 0.00 | 0.00 | 80 | 1014.4 |